Flag for Micronesia Weather past 2 weeks in Weno, Truk, Micronesia

Now
83 °F

Passing clouds.


Feels Like: 91 °F
Forecast: 81 / 85 °F
Wind: 9 mph from Northeast

Location: Truk Intl / Moen Island


UV Index: 10 (Very high)

Visibility: 15 mi


Pressure: 29.83 "Hg

Humidity: 76%

Dew point: 75 °F

Location of WenoLocation

Historic Weather in Weno

°F

Weno temperature yesterday

Maximum temperature yesterday: 87 °F (at 10:52 AM)
Minimum temperature yesterday: 79 °F (at 12:55 AM)
Average temperature yesterday: 83 °F

Past Weeks' High & Low Weather Summary

 TemperatureHumidityPressure
High89 °F (Apr 15, 12:56 PM)100% (Apr 14, 8:50 PM)29.87 "Hg (Apr 14, 8:50 PM)
Low76 °F (Apr 17, 8:50 PM)65% (Apr 21, 7:51 AM)29.62 "Hg (Apr 12, 12:50 AM)
Average82 °F87%29.78 "Hg
* Reported Apr 6 6:50 PM — Apr 21 6:50 PM, Weno, Weather by CustomWeather, © 2014

Note: Actual official high and low records may vary slightly from our data, if they occured in-between our weather recording intervals... More about our weather records

Advertising

Historic Weather Conditions — Data for Previous 24 hours

 ConditionsComfort  
Time TempWeatherWind HumidityBarometerVisibility
6:50 PM
Apr 21
83 °FPassing clouds.9 mph76%29.83 "Hg15 mi
5:52 PM84 °FBroken clouds.12 mph77%29.82 "Hg15 mi
4:54 PM85 °FPartly sunny.9 mph86%29.79 "Hg15 mi
3:55 PM86 °FPartly sunny.14 mph80%29.78 "Hg15 mi
2:54 PM86 °FScattered clouds.13 mph81%29.78 "Hg15 mi
1:55 PM87 °FScattered clouds.14 mph80%29.78 "Hg15 mi
12:52 PM87 °FPartly sunny.13 mph80%29.80 "Hg15 mi
11:53 AM86 °FScattered clouds.14 mph65%29.83 "Hg15 mi
10:53 AM87 °FScattered clouds.14 mph73%29.84 "Hg15 mi
9:51 AM85 °FMore clouds than sun.12 mph81%29.86 "Hg15 mi
8:53 AM86 °FOvercast.10 mph77%29.87 "Hg15 mi
7:51 AM86 °FPartly sunny.9 mph65%29.87 "Hg15 mi
6:50 AM83 °FPartly sunny.8 mph76%29.85 "Hg15 mi
5:51 AM82 °FOvercast.9 mph75%29.83 "Hg15 mi
4:52 AM83 °FPassing clouds.9 mph76%29.83 "Hg15 mi
3:50 AM83 °FPassing clouds.7 mph81%29.81 "Hg15 mi
2:51 AM83 °FPassing clouds.8 mph81%29.80 "Hg15 mi
1:52 AM83 °FPartly cloudy.8 mph72%29.81 "Hg15 mi
12:54 AM83 °FPartly cloudy.6 mph78%29.82 "Hg15 mi
11:51 PM
Apr 20
84 °FPartly cloudy.6 mph78%29.83 "Hg15 mi
10:50 PM84 °FPartly cloudy.8 mph71%29.85 "Hg15 mi
9:51 PM83 °FPassing clouds.8 mph80%29.86 "Hg15 mi
8:50 PM84 °FPassing clouds.6 mph77%29.84 "Hg15 mi
Weather by CustomWeather, © 2014

See weather overview